This is the latest recevied weather packets stored in our database for station/object W0WC. If no packets are shown the sender has not sent any weather packets the latest 10 day(s).
| Time | Temp. | Humidity | Pressure | Rain* | Wind** | Luminosity | Snow |
|---|---|---|---|---|---|---|---|
| 1788357460 | 30° C | 56% | 1018.6 hPa | 0 mm | - | 142 W/m² | - |
| 1788357156 | 30° C | 56% | 1018.5 hPa | 0 mm | - | 120 W/m² | - |
| 1788356856 | 29.44° C | 56% | 1018.3 hPa | 0 mm | - | 76 W/m² | - |
| 1788356551 | 28.89° C | 58% | 1018.2 hPa | 0 mm | - | 158 W/m² | - |
| 1788356246 | 28.89° C | 58% | 1018.3 hPa | 0 mm | - | 70 W/m² | - |
| 1788355946 | 28.89° C | 58% | 1018.3 hPa | 0 mm | - | 69 W/m² | - |
| 1788355641 | 28.89° C | 59% | 1018.3 hPa | 0 mm | - | 67 W/m² | - |
| 1788355336 | 28.89° C | 59% | 1018.5 hPa | 0 mm | - | 72 W/m² | - |
| 1788355032 | 28.33° C | 60% | 1018.5 hPa | 0 mm | - | 69 W/m² | - |
| 1788354729 | 28.33° C | 60% | 1018.3 hPa | 0 mm | - | 65 W/m² | - |
| 1788354428 | 28.33° C | 60% | 1018.4 hPa | 0 mm | - | 62 W/m² | - |
| 1788354124 | 28.33° C | 61% | 1018.2 hPa | 0 mm | - | 57 W/m² | - |
| 1788353820 | 28.33° C | 61% | 1018.4 hPa | 0 mm | - | 58 W/m² | - |
| 1788353516 | 28.33° C | 61% | 1018.3 hPa | 0 mm | - | 63 W/m² | - |
| 1788353228 | 28.33° C | 61% | 1018.3 hPa | 0 mm | - | 67 W/m² | - |
| 1788352911 | 27.78° C | 62% | 1018.1 hPa | 0 mm | - | 61 W/m² | - |
| 1788352607 | 27.78° C | 62% | 1018 hPa | 0 mm | - | 48 W/m² | - |
| 1788352302 | 27.78° C | 63% | 1018.2 hPa | 0 mm | - | 40 W/m² | - |
| 1788351997 | 27.78° C | 63% | 1018 hPa | 0 mm | - | 32 W/m² | - |
| 1788351693 | 27.22° C | 64% | 1018 hPa | 0 mm | - | 27 W/m² | - |
| 1788351392 | 27.22° C | 64% | 1017.9 hPa | 0 mm | - | 22 W/m² | - |
| 1788351087 | 27.22° C | 64% | 1017.6 hPa | 0 mm | - | 17 W/m² | - |
| 1788350783 | 27.22° C | 64% | 1017.6 hPa | 0 mm | - | 13 W/m² | - |
| 1788350480 | 27.22° C | 64% | 1017.6 hPa | 0 mm | - | 9 W/m² | - |
| 1788350174 | 27.22° C | 63% | 1017.6 hPa | 0 mm | - | 6 W/m² | - |
* Rain latest hour (hover to see other rain measurements)
** Current wind speed in m/s (hover to see current wind gust speed)